www.pogodaiklimat.ru
ПОГОДА в Сырдарье

Архив погоды в Сырдарье (Сырдарьинская область, Узбекистан)

Время
и дата
02:10 17.04
02:20 17.04
02:30 17.04
02:40 17.04
02:50 17.04
03:00 17.04
03:10 17.04
03:20 17.04
03:30 17.04
03:40 17.04
03:50 17.04
04:00 17.04
04:10 17.04
04:20 17.04
04:30 17.04
04:40 17.04
04:50 17.04
05:00 17.04
05:10 17.04
05:20 17.04
05:30 17.04
05:40 17.04
05:50 17.04
06:00 17.04
06:10 17.04
06:20 17.04
06:30 17.04
06:40 17.04
06:50 17.04
07:00 17.04
07:10 17.04
07:20 17.04
08:30 17.04
08:50 17.04
10:40 17.04
16:20 17.04
16:40 17.04
16:50 17.04
17:00 17.04
17:10 17.04
17:20 17.04
17:30 17.04
17:40 17.04
18:00 17.04
18:10 17.04
18:20 17.04
18:30 17.04
18:40 17.04
18:50 17.04
19:00 17.04
19:10 17.04
19:20 17.04
19:30 17.04
19:40 17.04
19:50 17.04
20:00 17.04
20:10 17.04
20:20 17.04
20:30 17.04
20:40 17.04
21:00 17.04
21:10 17.04
21:20 17.04
21:30 17.04
21:50 17.04
22:00 17.04
22:10 17.04
22:30 17.04
22:40 17.04
22:50 17.04
23:00 17.04
23:10 17.04
23:20 17.04
23:30 17.04
23:40 17.04
23:50 17.04
00:10 18.04
00:20 18.04
00:40 18.04
01:20 18.04
01:30 18.04
01:50 18.04
02:00 18.04
02:10 18.04
02:20 18.04
02:40 18.04
02:50 18.04
03:00 18.04
03:10 18.04
03:30 18.04
03:40 18.04
03:50 18.04
04:00 18.04
04:10 18.04
04:20 18.04
04:30 18.04
04:50 18.04
05:00 18.04
05:50 18.04
06:10 18.04
06:30 18.04
06:50 18.04
07:00 18.04
07:10 18.04
07:30 18.04
07:40 18.04
07:50 18.04
08:00 18.04
08:10 18.04
08:20 18.04
10:50 18.04
11:30 18.04
12:20 20.04
12:30 20.04
12:40 20.04
12:50 20.04
13:00 20.04
13:10 20.04
13:20 20.04
13:30 20.04
13:40 20.04
13:50 20.04
14:00 20.04
14:10 20.04
14:20 20.04
14:40 20.04
14:50 20.04
15:00 20.04
15:10 20.04
15:20 20.04
15:30 20.04
15:40 20.04
15:50 20.04
16:00 20.04
16:10 20.04
16:20 20.04
16:30 20.04
16:40 20.04
16:50 20.04
17:00 20.04
17:10 20.04
17:20 20.04
17:30 20.04
17:40 20.04
Ветер
(напр.,м/с)
Видимость Явления Солнечная радиация
(Вт/м2)
Т
(С)
Тd
(С)
f
(%)
Тe
(С)
Тes
(С)
Комфортность P
(гПа)
Po
(гПа)
Тmin
(С)
Tmax
(С)
R
(мм)
СВ 1.2
{1.8}
+11.8 +1.4 49 +12 +12 1021.5 990.7 +12.0 +11.8
СВ 1.0
{1.8}
+11.7 +11.7 100 +11 +11 1021.4 990.6 +11.8 +11.7
СВ 1.5
{2.3}
+11.7 +11.7 100 +11 +11 1021.3 990.5 +11.7 +11.7
СВ 1.2
{2.2}
+11.6 +11.6 100 +11 +11 1021.2 990.4 +11.7 +11.6
СВ 1.4
{2.2}
+11.5 +11.5 100 +11 +11 1021.1 990.3 +11.6 +11.5
СВ 1.5
{2.2}
+11.5 +11.5 100 +11 +11 1021.0 990.2 +11.5 +11.5
В 1.3
{2.2}
+11.4 +11.4 100 +11 +11 1021.0 990.2 +11.5 +11.4
СВ 1.7
{2.9}
+11.4 +11.4 100 +10 +10 1021.1 990.3 +11.4 +11.3
СВ 1.6
{2.7}
+11.3 +1.0 49 +11 +11 1021.1 990.3 +11.4 +11.3
СВ 1.3
{2.2}
+11.2 +8.2 82 +11 +11 1021.1 990.3 +11.3 +11.2
СВ 1.1
{1.9}
+11.0 +11.0 100 +10 +10 1021.1 990.3 +11.2 +11.0
СВ 1.1
{2.5}
+10.8 +10.8 100 +10 +10 1021.0 990.2 +11.0 +10.8
СВ 1.3
{2.1}
+10.8 +6.9 77 +10 +10 1021.1 990.3 +10.8 +10.8
В 1.4
{2.2}
+10.6 +10.6 100 +10 +10 1021.1 990.3 +10.8 +10.6
ЮВ 0.9
{1.9}
+10.1 +10.1 100 +10 +10 1021.3 990.5 +10.6 +10.1
ЮВ 1.1
{2.1}
+9.8 +7.6 86 +9 +9 1021.4 990.6 +10.1 +9.8
ЮВ 1.3
{2.6}
+9.7 +7.6 87 +9 +9 1021.3 990.5 +9.8 +9.7
В 1.0
{1.6}
+9.7 -0.6 49 +10 +10 1021.4 990.6 +9.7 +9.7
СВ 0.8
{1.4}
+9.8 +1.5 57 +10 +10 1021.4 990.6 +9.8 +9.7
С 0.7
{1.6}
+9.8 +9.8 100 +10 +10 1021.6 990.8 +9.8 +9.8
С 0.9
{1.6}
+9.8 +9.8 100 +9 +9 1021.8 991.0 +9.9 +9.8
СВ 0.7
{1.3}
+9.8 +9.8 100 +10 +10 1022.0 991.2 +9.8 +9.8
СВ 0.8
{1.5}
+9.8 +9.8 100 +9 +9 1022.0 991.2 +9.8 +9.8
СВ 0.7
{1.5}
+9.9 +9.9 100 +10 +10 1022.0 991.2 +9.9 +9.8
СВ 0.5
{1.2}
+9.9 +9.9 100 +10 +10 1021.9 991.1 +9.9 +9.9
СВ 0.7
{1.2}
+10.3 +8.0 86 +10 +10 1021.9 991.1 +10.3 +9.9
СВ 0.8
{1.6}
+10.8 +8.0 83 +11 +11 1022.0 991.2 +10.8 +10.3
СВ 1.0
{1.9}
+11.3 +9.5 89 +11 +11 1022.1 991.3 +11.3 +10.8
СВ 1.1
{2.4}
+11.8 +11.8 100 +11 +11 1022.1 991.3 +11.8 +11.3
СВ 1.1
{2.0}
+12.3 +11.1 93 +12 +12 1022.1 991.3 +12.3 +11.8
СВ 1.0
{2.0}
+12.8 +6.4 65 +13 +13 1022.1 991.3 +12.8 +12.3
СВ 1.2
{2.2}
+13.3 +13.3 100 +13 +13 1022.3 991.5 +13.3 +12.8
В 0.9
{1.8}
+17.2 +17.2 100 +18 +18 1022.2 991.4 +17.2 +16.7
СВ 0.8
{2.5}
+17.9 +17.9 100 +19 +19 1022.2 991.4 +17.9 +17.3
С 1.9
{4.0}
3.7 +20.9 +12.0 57 +24 +24 комфорт 1021.7 990.9 +20.9 +20.6
С 2.9
{5.8}
17.9 +24.1 +11.9 46 +26 +26 жарко 1017.1 986.4 +24.2 +24.0
С 2.9
{5.5}
16.5 +23.9 +10.0 41 +25 +25 комфорт 1016.9 986.2 +24.0 +23.8
С 2.7
{4.6}
16.0 +24.0 +9.7 40 +25 +25 комфорт 1016.8 986.1 +24.0 +23.9
С 2.4
{5.5}
15.3 +24.2 +10.1 41 +25 +25 комфорт 1016.7 986.0 +24.2 +24.0
С 1.8
{4.2}
14.5 +24.1 +9.6 40 +25 +25 комфорт 1016.7 986.0 +24.3 +24.2
СВ 2.1
{4.1}
13.5 +24.1 +9.8 40 +25 +25 комфорт 1016.6 985.9 +24.1 +24.0
С 1.7
{4.2}
12.4 +24.1 +9.8 40 +25 +25 комфорт 1016.6 985.9 +24.1 +24.1
С 1.5
{3.6}
11.4 +23.9 +10.0 41 +25 +25 комфорт 1016.4 985.7 +24.1 +23.9
С 2.5
{4.1}
8.5 +23.3 +11.4 47 +26 +26 жарко 1016.3 985.6 +23.6 +23.3
С 2.0
{3.9}
7.0 +23.2 +10.8 46 +25 +25 комфорт 1016.3 985.6 +23.3 +23.2
С 2.2
{3.8}
7.0 +22.8 +11.7 50 +25 +25 комфорт 1016.3 985.6 +23.2 +22.8
С 2.1
{3.8}
6.2 +22.4 +12.0 51 +25 +25 комфорт 1016.2 985.5 +22.8 +22.5
С 1.8
{3.6}
5.0 +22.1 +12.1 53 +24 +24 комфорт 1016.2 985.5 +22.4 +22.1
С 1.7
{3.4}
3.7 +21.7 +12.3 55 +24 +24 комфорт 1016.2 985.5 +22.1 +21.7
С 1.5
{2.5}
4.1 +21.4 +12.7 58 +24 +24 комфорт 1016.1 985.4 +21.7 +21.4
С 1.9
{3.3}
3.0 +21.2 +12.5 58 +23 +23 комфорт 1016.1 985.4 +21.4 +21.2
С 1.7
{3.8}
2.0 +20.9 +12.8 60 +24 +24 комфорт 1016.2 985.5 +21.2 +20.9
С 1.8
{3.0}
1.3 +20.6 +13.1 62 +24 +24 комфорт 1016.1 985.4 +20.9 +20.6
СЗ 1.8
{3.0}
1.3 +20.3 +13.4 64 +23 +23 комфорт 1016.1 985.4 +20.6 +20.3
СЗ 1.6
{2.6}
0.8 +20.0 +13.5 66 +23 +23 комфорт 1016.2 985.5 +20.3 +20.0
СЗ 1.6
{3.0}
0.2 +19.9 +13.6 67 +23 +23 комфорт 1016.2 985.5 +20.0 +19.9
СЗ 1.6
{3.2}
+19.7 +13.9 69 +22 +22 комфорт 1016.2 985.5 +19.9 +19.7
СЗ 1.6
{3.6}
+19.5 +14.0 70 +22 +22 комфорт 1016.2 985.5 +19.7 +19.5
СЗ 1.7
{3.8}
+19.2 +14.2 73 +21 +21 комфорт 1016.2 985.5 +19.5 +19.2
СЗ 1.9
{3.5}
+19.1 +14.6 75 +21 +21 комфорт 1016.1 985.4 +19.2 +19.1
С 1.9
{3.4}
+18.5 +15.4 82 +20 +20 1016.1 985.4 +18.7 +18.5
С 1.9
{3.5}
+18.2 +15.9 86 +19 +19 1016.0 985.3 +18.5 +18.2
С 1.8
{3.1}
+17.9 +16.4 91 +19 +19 1016.0 985.3 +18.2 +17.9
С 1.8
{2.9}
+17.7 +17.2 97 +18 +18 1016.0 985.3 +17.9 +17.7
С 2.3
{3.4}
+17.2 +17.2 100 +17 +17 1015.8 985.2 +17.5 +17.2
С 2.4
{3.9}
+17.1 +17.1 100 +17 +17 1015.7 985.1 +17.2 +17.1
С 2.3
{3.8}
+17.0 +17.0 100 +17 +17 1015.6 985.0 +17.1 +17.0
С 1.8
{2.8}
+16.7 +16.7 100 +17 +17 1015.5 984.9 +16.8 +16.7
С 1.9
{2.8}
+16.5 +16.5 100 +17 +17 1015.5 984.9 +16.7 +16.5
С 2.0
{3.6}
+16.4 +16.4 100 +16 +16 1015.4 984.8 +16.5 +16.4
С 2.1
{3.5}
+16.3 +16.3 100 +16 +16 1015.4 984.8 +16.4 +16.3
С 2.0
{3.7}
+16.2 +16.2 100 +16 +16 1015.3 984.7 +16.3 +16.2
С 1.8
{3.0}
+16.0 +16.0 100 +16 +16 1015.2 984.6 +16.2 +16.0
С 1.9
{3.0}
+15.8 +15.8 100 +16 +16 1015.1 984.5 +16.0 +15.8
С 1.7
{2.7}
+15.6 +15.6 100 +16 +16 1014.9 984.3 +15.8 +15.6
С 1.0
{2.3}
+15.3 +5.0 50 +16 +16 1014.8 984.2 +15.6 +15.3
С 1.1
{1.9}
+14.8 +14.8 100 +15 +15 1014.7 984.1 +15.1 +14.8
С 1.5
{2.6}
+14.8 +14.8 100 +15 +15 1014.6 984.0 +14.8 +14.7
С 1.3
{2.5}
+14.5 +14.5 100 +14 +14 1014.4 983.8 +14.7 +14.5
СВ 1.1
{1.9}
+13.9 +13.9 100 +14 +14 1014.0 983.4 +13.9 +13.8
В 0.9
{1.8}
+13.9 +13.9 100 +14 +14 1013.9 983.3 +13.9 +13.8
СВ 1.2
{2.6}
+14.0 +14.0 100 +14 +14 1013.8 983.2 +14.0 +13.9
СВ 1.2
{2.3}
+13.9 +12.7 93 +14 +14 1013.7 983.1 +14.0 +13.9
В 1.1
{2.0}
+13.7 +13.7 100 +14 +14 1013.6 983.0 +13.9 +13.7
В 0.9
{1.8}
+13.6 +13.6 100 +14 +14 1013.6 983.0 +13.7 +13.6
СВ 0.9
{1.6}
+13.2 +6.9 66 +14 +14 1013.5 982.9 +13.3 +13.2
СВ 1.2
{2.2}
+13.2 +11.3 88 +13 +13 1013.4 982.8 +13.2 +13.1
В 0.9
{1.9}
+12.9 +12.9 100 +13 +13 1013.4 982.8 +13.2 +12.9
В 1.1
{1.6}
+12.9 +12.9 100 +13 +13 1013.3 982.7 +12.9 +12.9
В 1.6
{2.4}
+12.3 +12.3 100 +11 +11 1013.2 982.6 +12.6 +12.3
ЮВ 1.4
{2.2}
+12.2 +12.2 100 +12 +12 1013.0 982.4 +12.3 +12.2
СВ 0.8
{1.5}
+12.0 +12.0 100 +12 +12 1013.1 982.5 +12.2 +12.0
СВ 1.1
{2.2}
+12.1 +12.1 100 +12 +12 1013.1 982.5 +12.1 +11.9
СВ 0.9
{1.6}
+12.0 +12.0 100 +12 +12 1013.2 982.6 +12.1 +12.0
С 1.2
{2.2}
+11.8 +10.9 94 +11 +11 1013.1 982.5 +12.0 +11.8
СВ 1.0
{2.3}
+11.9 +11.9 100 +12 +12 1013.1 982.5 +11.9 +11.8
СВ 1.1
{1.8}
+11.9 +11.9 100 +11 +11 1013.1 982.5 +11.9 +11.9
В 1.1
{2.0}
+11.8 +4.5 61 +12 +12 1013.1 982.5 +11.9 +11.7
С 0.8
{1.3}
+11.1 +11.1 100 +11 +11 1013.2 982.6 +11.1 +11.1
В 1.2
{2.0}
+10.6 +10.6 100 +10 +10 1013.3 982.7 +11.2 +10.6
В 1.1
{2.1}
+10.7 +10.7 100 +10 +10 1013.4 982.8 +10.7 +10.4
ЮВ 0.8
{1.7}
+11.5 +2.0 52 +12 +12 1013.3 982.7 +11.5 +11.0
ЮВ 1.3
{2.3}
+11.9 +11.9 100 +11 +11 1013.3 982.7 +11.9 +11.5
ЮВ 1.2
{2.7}
+12.6 +12.6 100 +12 +12 1013.2 982.6 +12.6 +11.9
ЮВ 1.3
{2.3}
+13.9 +13.9 100 +14 +14 1013.1 982.5 +13.9 +13.4
Ю 1.1
{2.7}
+14.9 +4.5 50 +15 +15 1013.1 982.5 +14.9 +13.9
Ю 1.6
{2.9}
+15.5 +15.5 100 +16 +16 1013.1 982.5 +15.5 +14.9
Ю 1.5
{2.9}
+15.9 +15.9 100 +16 +16 1013.0 982.4 +15.9 +15.5
Ю 1.6
{2.8}
+16.5 +16.5 100 +17 +17 1013.0 982.4 +16.5 +15.9
Ю 1.5
{2.7}
+16.9 +16.9 100 +17 +17 1013.0 982.4 +16.9 +16.4
З 1.4
{3.0}
6.6 +22.6 +18.7 79 +28 +28 душно 1012.5 981.9 +22.8 +22.5
ЮЗ 2.1
{4.3}
11.1 +24.1 +15.1 57 +27 +27 жарко 1012.0 981.4 +24.1 +23.6
В 1.2
{2.8}
39.2 +28.8 +12.7 37 +30 +31 жарко 1008.0 977.5 +29.0 +28.1
ЮВ 1.6
{3.2}
45.7 +28.1 +12.1 37 +29 +30 жарко 1008.1 977.6 +28.7 +28.2
ЮВ 2.2
{3.9}
44.6 +28.0 +12.1 37 +29 +30 жарко 1008.1 977.6 +28.2 +28.0
Ю 1.0
{2.6}
45.4 +28.9 +12.8 37 +30 +31 жарко 1008.2 977.7 +28.9 +28.0
В 0.8
{1.8}
60.8 +29.8 +12.9 35 +31 +32 жарко 1008.1 977.7 +29.7 +28.9
ЮЗ 1.7
{6.4}
104.7 +29.5 +12.1 34 +30 +32 жарко 1008.0 977.6 +29.8 +29.2
СЗ 1.2
{3.0}
1021.8 +29.7 +12.5 35 +31 +54 опасность
солнечного
удара
1008.0 977.6 +29.8 +29.4
СЗ 1.9
{3.6}
2103.5 +29.0 +12.1 35 +30 +60 опасность
солнечного
удара
1008.0 977.6 +29.8 +29.0
ЮЗ 1.2
{3.0}
2609.8 +29.0 +12.4 36 +30 +60 опасность
солнечного
удара
1008.0 977.6 +29.3 +28.9
З 1.2
{3.9}
2776.1 +29.4 +12.1 34 +30 +60 опасность
солнечного
удара
1008.0 977.6 +29.6 +29.0
З 1.7
{3.4}
2790.2 +29.9 +11.2 32 +30 +60 опасность
солнечного
удара
1008.0 977.6 +29.9 +29.4
З 1.7
{3.5}
2790.2 +29.5 +11.2 32 +30 +60 опасность
солнечного
удара
1007.9 977.5 +30.0 +29.5
З 2.6
{5.0}
2790.2 +29.5 +11.5 33 +30 +60 опасность
солнечного
удара
1007.9 977.5 +29.5 +29.4
З 2.5
{4.9}
2599.4 +28.6 +12.0 36 +30 +60 опасность
солнечного
удара
1007.7 977.3 +29.1 +28.6
З 2.2
{4.5}
2178.7 +29.3 +10.5 31 +29 +59 опасность
солнечного
удара
1007.7 977.3 +29.3 +28.6
З 2.4
{4.2}
2010.3 +29.5 +11.4 33 +30 +60 опасность
солнечного
удара
1007.7 977.3 +29.6 +29.3
З 2.4
{4.2}
2067.0 +29.5 +11.3 32 +30 +60 опасность
солнечного
удара
1007.7 977.3 +29.7 +29.5
З 1.5
{3.8}
2186.2 +30.0 +11.3 32 +31 +61 опасность
солнечного
удара
1007.7 977.3 +30.0 +29.5
С 1.7
{4.7}
2449.5 +30.0 +9.7 28 +30 +60 опасность
солнечного
удара
1007.7 977.3 +30.0 +30.0
С 2.0
{5.2}
2734.3 +29.6 +9.1 28 +29 +59 опасность
солнечного
удара
1007.8 977.4 +30.0 +29.6
С 2.5
{5.2}
2790.2 +29.5 +8.0 26 +29 +59 опасность
солнечного
удара
1007.8 977.4 +29.7 +29.5
С 1.7
{4.2}
2790.2 +29.5 +8.9 28 +29 +59 опасность
солнечного
удара
1007.8 977.4 +29.6 +29.5
СЗ 2.8
{4.8}
2695.0 +29.0 +6.3 24 +28 +58 опасность
солнечного
удара
1007.8 977.4 +29.5 +29.0
З 1.8
{3.5}
2393.3 +29.3 +6.1 23 +28 +58 опасность
солнечного
удара
1008.0 977.5 +29.3 +29.0
СЗ 1.5
{3.2}
2092.2 +29.3 +7.2 25 +28 +58 опасность
солнечного
удара
1007.9 977.5 +29.4 +29.3
С 1.6
{3.3}
1894.7 +28.8 +6.7 25 +28 +58 опасность
солнечного
удара
1008.0 977.5 +29.3 +28.9
СЗ 1.3
{2.7}
1600.3 +29.2 +6.4 24 +28 +58 опасность
солнечного
удара
1008.1 977.6 +29.2 +28.8
СЗ 1.6
{3.7}
1299.8 +29.2 +7.4 25 +28 +56 опасность
солнечного
удара
1008.1 977.6 +29.2 +29.1
СЗ 2.5
{4.6}
1063.9 +28.9 +7.1 25 +28 +49 жарко 1008.0 977.5 +29.2 +28.9
С 1.8
{3.5}
826.1 +29.0 +7.5 26 +28 +46 жарко 1008.1 977.6 +29.1 +28.9
С 2.1
{4.4}
717.0 +28.4 +7.0 26 +28 +43 жарко 1008.1 977.6 +29.0 +28.4
С 2.1
{3.9}
587.8 +28.0 +7.7 28 +28 +40 жарко 1008.1 977.6 +28.4 +28.0
Местоположение метеостанции Сырдарья (Сырдарьинская область, Узбекистан): широта 40.81 долгота 68.68 высота над уровнем моря 0 м.
В архиве по умолчанию представлена погода в Сырдарье за последние 1-2 суток. Обновление информации о фактической погоде в базе происходит ежечасно! Архивные данные за месяц целиком и за предыдущие месяцы Вы можете получить, выбрав интересующий диапазон дат из раскрывающегося списка и нажав кнопку "Ввод!".
*Определитесь, кто Вы:
Внимание! Время в таблицах - местное (без учета летнего времени). Для получения всемирного времени необходимо вычесть поправку, которая равна 5 ч.
Смотрите также архив погоды на ближайших метеорологических станциях:
Партнеры нашего сайта:      
Пояснения к столбцам:
  • Ветер - указаны скорость ветра в м/с - средняя за 10 мин, порывы в срок и между сроками (в фигурных скобках) и направление, откуда дует ветер: С - северный,
  • СВ - северо-восточный, В - восточный, ЮВ - юго-восточный, Ю - южный, ЮЗ - юго-западный, З - западный, СЗ - северо-западный.
  • Видимость - горизонтальная дальность видимости в метрах или километрах. При видимости от 1 до 10 км при отсутствии осадков обычно наблюдается дымка, при ухудшении видимости до 1 км и менее - туман. В сухую погоду видимость может ухудшаться дымом, пылью или мглою.
  • Явления - указаны атмосферные явления, наблюдавшиеся в срок или в последний час перед сроком.
  • Солнечная радиация - мощность потока солнечного излучения на поверхность земли и предметов в Вт/м2.
  • T - Температура воздуха - температура, измеренная на высоте 2 м над землей.
  • Td - Температура точки росы - температура, при понижении до которой содержащийся в воздухе водяной пар достигнет насыщения.
  • f - Относительная влажность воздуха - влажноcть воздуха, измеренная на высоте 2 м над землей.
  • Te - Эффективная температура - температура, которую ощущает одетый по сезону человек в тени. Характеристика душности погоды. При расчете учитывается влияние влажности воздуха и скорости ветра на теплоощущения человека.
  • Tes - Эффективная температура на солнце - температура, которую ощущает человек, с поправкой на солнечный нагрев. Характеристика знойности погоды. Зависит от высоты солнца над горизонтом, облачности и скорости ветра. Ночью, в пасмурную погоду, а также при ветре 12 м/с и более поправка равна нулю.
  • P - Атмосферное давление - приведенное к уровню моря атмосферное давление.
  • Po - Атмосферное давление - измеренное на уровне метеостанции атмосферное давление.
  • Tmin - Минимальная температура - минимум температуры воздуха на высоте 2 м над землей.
  • Tmax - Максимальная температура - максимум температуры воздуха на высоте 2 м над землей.
  • R - Количество осадков - Количество выпавших осадков за период времени, мм. При наведении курсора мыши на число - период времени, за который выпало указанное количество осадков.